This demonstration page uses our WeatherBlox Daily Observations layout. Learn more.

Hourly Observations for February 21, 2018

Temp ( °F °C ) Dew Point ( °F °C ) Humidity (%) Winds ( mph kmh ) Pressure ( in mb ) Visibility ( mi km ) Precip ( " mm )
12:15 am 00:15 Clear 9 -13 3 -16 78 78 NW 6 9 30.65 1038 10 16.0934 0 0
12:35 am 00:35 Partly Cloudy 8 -13.4 3 -16.1 80 80 NW 5 7 30.68 1039 10 16.0934 0 0
12:55 am 00:55 Clear 7 -13.7 2 -16.4 80 80 NNW 5 7 30.65 1038 10 16.0934 0 0
1:15 am 01:15 Clear 7 -14 2 -16.5 82 82 NNW 7 11 30.65 1038 10 16.0934 0 0
1:35 am 01:35 Clear 7 -14 2 -16.6 81 81 NNW 6 9 30.65 1038 10 16.0934 0 0
1:55 am 01:55 Clear 6 -14.2 2 -16.8 81 81 NNW 3 6 30.71 1040 10 16.0934 0 0
2:15 am 02:15 Clear 6 -14.2 2 -16.7 82 82 Calm 30.71 1040 10 16.0934 0 0
2:35 am 02:35 Clear 7 -14.1 2 -16.9 80 80 Calm 30.71 1040 10 16.0934 0 0
2:55 am 02:55 Clear 6 -14.5 1 -17 81 81 Calm 30.71 1040 10 16.0934 0 0
3:15 am 03:15 Clear 5 -15.1 1 -17.2 84 84 Calm 30.71 1040 10 16.0934 0 0
3:35 am 03:35 Clear 5 -15 1 -17 85 85 Calm 30.71 1040 10 16.0934 0 0
3:55 am 03:55 Clear 4 -15.5 0 -17.6 84 84 NW 3 6 30.71 1040 10 16.0934 0 0
4:15 am 04:15 Clear 4 -15.6 0 -17.8 83 83 NNW 3 6 30.71 1040 10 16.0934 0 0
4:35 am 04:35 Clear 4 -15.5 0 -17.6 84 84 Calm 30.71 1040 10 16.0934 0 0
4:55 am 04:55 Clear 4 -15.5 0 -17.9 82 82 Calm 30.71 1040 10 16.0934 0 0
5:15 am 05:15 Clear 3 -16 -1 -18.1 84 84 Calm 30.71 1040 10 16.0934 0 0
5:35 am 05:35 Clear 2 -16.7 -2 -18.8 84 84 Calm 30.74 1041 10 16.0934 0 0
5:55 am 05:55 Clear 3 -16 -1 -18.1 84 84 N 3 6 30.71 1040 10 16.0934 0 0
6:15 am 06:15 Clear 3 -16 -1 -18.1 84 84 N 5 7 30.71 1040 10 16.0934 0 0
6:35 am 06:35 Clear 3 -15.9 0 -18 84 84 N 3 6 30.71 1040 10 16.0934 0 0
6:55 am 06:55 Clear 2 -16.5 -1 -18.5 85 85 NE 3 6 30.71 1040 10 16.0934 0 0
7:15 am 07:15 Clear 2 -16.9 -2 -19 84 84 ESE 5 7 30.77 1042 10 16.0934 0 0
7:35 am 07:35 Sunny 1 -17 -2 -19 85 85 SE 5 7 30.77 1042 10 16.0934 0 0
7:55 am 07:55 Sunny 3 -16.3 -1 -18.3 85 85 SSE 5 7 30.74 1041 10 16.0934 0 0
8:15 am 08:15 Sunny 5 -14.9 1 -17 84 84 Calm 30.77 1042 10 16.0934 0 0
8:35 am 08:35 Sunny 7 -14 3 -16.3 83 83 SSE 5 7 30.77 1042 10 16.0934 0 0
8:55 am 08:55 Sunny 9 -12.7 4 -15.8 78 78 SSE 5 7 30.74 1041 10 16.0934 0 0
9:15 am 09:15 Sunny 10 -12 3 -16 72 72 SSE 3 6 30.74 1041 10 16.0934 0 0
9:35 am 09:35 Sunny 12 -11 4 -15.7 69 69 ESE 3 6 30.74 1041 10 16.0934 0 0
9:55 am 09:55 Sunny 13 -10.5 4 -15.7 66 66 SE 5 7 30.71 1040 10 16.0934 0 0
10:15 am 10:15 Sunny 15 -9.5 4 -15.6 61 61 SSE 5 7 30.71 1040 10 16.0934 0 0
10:35 am 10:35 Sunny 16 -9 3 -16.3 56 56 SSE 6 9 30.71 1040 10 16.0934 0 0
10:55 am 10:55 Sunny 17 -8.4 4 -15.7 56 56 SSW 3 6 30.71 1040 10 16.0934 0 0
11:15 am 11:15 Sunny 18 -7.8 3 -16 52 52 S 6 9 30.68 1039 10 16.0934 0 0
11:35 am 11:35 Sunny 20 -6.5 4 -15.3 50 50 SSE 5 7 30.68 1039 10 16.0934 0 0
11:55 am 11:55 Sunny 20 -6.5 3 -16.1 47 47 SSE 3 6 30.65 1038 10 16.0934 0 0
12:15 pm 12:15 Sunny 21 -5.9 3 -16.3 44 44 SE 6 9 30.65 1038 10 16.0934 0 0
12:35 pm 12:35 Sunny 23 -5.1 3 -16 42 42 ESE 5 7 30.62 1037 10 16.0934 0 0
12:55 pm 12:55 Sunny 24 -4.7 3 -15.9 42 42 ESE 5 7 30.62 1037 10 16.0934 0 0
1:15 pm 13:15 Sunny 24 -4.3 3 -16.1 40 40 SSE 7 11 30.62 1037 10 16.0934 0 0
1:35 pm 13:35 Sunny 25 -3.8 4 -15.6 40 40 SSE 5 7 30.62 1037 10 16.0934 0 0
1:55 pm 13:55 Sunny 25 -3.8 4 -15.6 40 40 E 3 6 30.59 1036 10 16.0934 0 0
2:15 pm 14:15 Sunny 26 -3.4 3 -15.9 38 38 S 3 6 30.59 1036 10 16.0934 0 0
2:35 pm 14:35 Sunny 28 -2.5 4 -15.3 37 37 ESE 5 7 30.56 1035 10 16.0934 0 0
2:55 pm 14:55 Sunny 28 -2.3 4 -15.4 36 36 SSE 5 7 30.53 1034 10 16.0934 0 0
3:15 pm 15:15 Sunny 28 -2 4 -15.6 35 35 ESE 5 7 30.53 1034 10 16.0934 0 0
3:35 pm 15:35 Sunny 29 -1.8 4 -15.4 35 35 SE 5 7 30.53 1034 10 16.0934 0 0
3:55 pm 15:55 Partly Cloudy 29 -1.7 4 -15.7 34 34 SE 5 7 30.53 1034 10 16.0934 0 0
4:15 pm 16:15 Sunny 29 -1.6 4 -15.4 34 34 ESE 9 15 30.53 1034 10 16.0934 0 0
4:35 pm 16:35 Sunny 30 -1.3 5 -15.2 34 34 ESE 6 9 30.53 1034 10 16.0934 0 0
4:55 pm 16:55 Sunny 29 -1.6 4 -15.6 34 34 SE 10 17 30.53 1034 10 16.0934 0 0
5:15 pm 17:15 Mostly Cloudy 29 -1.6 5 -15.1 35 35 ESE 9 15 30.53 1034 10 16.0934 0 0
5:35 pm 17:35 Cloudy 28 -2 5 -15.1 36 36 ESE 8 13 30.53 1034 10 16.0934 0 0
5:55 pm 17:55 Cloudy 28 -2.4 5 -15 38 38 E 8 13 30.53 1034 10 16.0934 0 0
6:15 pm 18:15 Cloudy 27 -2.6 6 -14.5 40 40 E 8 13 30.53 1034 10 16.0934 0 0
6:35 pm 18:35 Cloudy 27 -2.7 7 -13.9 42 42 E 12 19 30.53 1034 10 16.0934 0 0
6:55 pm 18:55 Cloudy 27 -3 7 -13.9 43 43 E 10 17 30.5 1033 10 16.0934 0 0
7:15 pm 19:15 Cloudy 26 -3.2 6 -14.2 43 43 E 10 17 30.56 1035 10 16.0934 0 0
7:35 pm 19:35 Cloudy 26 -3.3 7 -13.9 44 44 E 9 15 30.56 1035 10 16.0934 0 0
7:55 pm 19:55 Cloudy 26 -3.5 8 -13.6 46 46 E 8 13 30.53 1034 10 16.0934 0 0
8:15 pm 20:15 Cloudy 25 -3.7 9 -13 49 49 ENE 10 17 30.53 1034 10 16.0934 0 0
8:35 pm 20:35 Cloudy 25 -3.7 8 -13.5 47 47 E 9 15 30.53 1034 10 16.0934 0 0
8:55 pm 20:55 Cloudy 25 -3.8 9 -12.9 50 50 E 9 15 30.53 1034 10 16.0934 0 0
9:15 pm 21:15 Cloudy 25 -3.8 9 -13 49 49 E 9 15 30.53 1034 10 16.0934 0 0
9:35 pm 21:35 Cloudy 25 -4 9 -12.8 51 51 E 12 19 30.53 1034 10 16.0934 0 0
9:55 pm 21:55 Cloudy 25 -4 9 -12.8 51 51 ESE 10 17 30.56 1035 10 16.0934 0 0
10:15 pm 22:15 Cloudy 25 -4.1 9 -12.7 52 52 ESE 10 17 30.56 1035 10 16.0934 0 0
10:35 pm 22:35 Cloudy 24 -4.3 9 -12.7 52 52 E 9 15 30.53 1034 10 16.0934 0 0
10:55 pm 22:55 Cloudy with Light Snow 23 -5 11 -11.4 61 61 ENE 8 13 30.53 1034 7 11.26538 0 0
11:15 pm 23:15 Cloudy 24 -4.7 10 -12.3 56 56 E 9 15 30.53 1034 10 16.0934 0 0
11:35 pm 23:35 Cloudy 23 -4.8 10 -12.5 55 55 E 8 13 30.53 1034 10 16.0934 0 0
11:55 pm 23:55 Cloudy with Light Snow 23 -4.9 10 -12.3 57 57 E 6 9 30.53 1034 7 11.26538 0 0

Powered by AerisWeather